Time,TemperatureF,DewpointF,PressureIn,WindDirection,WindDirectionDegrees,WindSpeedMPH,WindSpeedGustMPH,Humidity,HourlyPrecipIn,Conditions,Clouds,dailyrainin,SoftwareType,DateUTC
2013-03-05 00:00:00,18.5,11.8,30.64,WSW,247,0.0,0.0,75,0.00,,,0.00,WUHU21623XXSP,2013-03-05 05:00:00,
2013-03-05 00:01:00,18.5,11.8,30.64,WSW,247,0.0,0.0,75,0.00,,,0.00,WUHU21623XXSP,2013-03-05 05:01:00,
2013-03-05 00:06:00,18.5,11.8,30.64,WSW,247,0.0,0.0,75,0.00,,,0.00,WUHU21623XXSP,2013-03-05 05:06:00,
2013-03-05 00:11:00,18.3,11.9,30.63,SW,225,0.0,0.0,76,0.00,,,0.00,WUHU21623XXSP,2013-03-05 05:11:00,
2013-03-05 00:16:00,18.3,11.9,30.64,SW,225,0.0,0.0,76,0.00,,,0.00,WUHU21623XXSP,2013-03-05 05:16:00,
2013-03-05 00:21:00,18.1,11.7,30.63,SW,225,0.0,0.0,76,0.00,,,0.00,WUHU21623XXSP,2013-03-05 05:21:00,
2013-03-05 00:26:00,18.1,11.7,30.64,SW,225,0.0,0.0,76,0.00,,,0.00,WUHU21623XXSP,2013-03-05 05:26:00,
2013-03-05 00:31:00,18.0,11.6,30.64,SW,225,0.0,0.0,76,0.00,,,0.00,WUHU21623XXSP,2013-03-05 05:31:00,
2013-03-05 00:36:00,17.8,11.4,30.64,SW,225,0.0,0.0,76,0.00,,,0.00,WUHU21623XXSP,2013-03-05 05:36:00,
2013-03-05 00:41:00,17.8,11.7,30.64,SW,225,0.0,0.0,77,0.00,,,0.00,WUHU21623XXSP,2013-03-05 05:41:00,
2013-03-05 00:46:00,17.8,11.7,30.64,SW,225,0.0,0.0,77,0.00,,,0.00,WUHU21623XXSP,2013-03-05 05:46:00,
2013-03-05 00:51:00,17.6,11.5,30.64,SW,225,0.0,0.0,77,0.00,,,0.00,WUHU21623XXSP,2013-03-05 05:51:00,
2013-03-05 00:56:00,17.4,11.3,30.65,SW,225,0.0,0.0,77,0.00,,,0.00,WUHU21623XXSP,2013-03-05 05:56:00,
2013-03-05 01:01:00,17.4,11.3,30.64,SW,225,0.0,0.0,77,0.00,,,0.00,WUHU21623XXSP,2013-03-05 06:01:00,
2013-03-05 01:06:00,17.4,11.3,30.64,SW,225,0.0,0.0,77,0.00,,,0.00,WUHU21623XXSP,2013-03-05 06:06:00,
2013-03-05 01:11:00,17.2,11.2,30.64,SW,225,0.0,0.0,77,0.00,,,0.00,WUHU21623XXSP,2013-03-05 06:11:00,
2013-03-05 01:16:00,17.2,11.2,30.64,SW,225,0.0,0.0,77,0.00,,,0.00,WUHU21623XXSP,2013-03-05 06:16:00,
2013-03-05 01:21:00,17.2,11.2,30.64,SW,225,0.0,0.0,77,0.00,,,0.00,WUHU21623XXSP,2013-03-05 06:21:00,
2013-03-05 01:26:00,17.2,11.2,30.64,SW,225,0.0,0.0,77,0.00,,,0.00,WUHU21623XXSP,2013-03-05 06:26:00,
2013-03-05 01:31:00,16.9,10.8,30.64,SW,225,0.0,0.0,77,0.00,,,0.00,WUHU21623XXSP,2013-03-05 06:31:00,
2013-03-05 01:36:00,16.9,10.8,30.64,SW,225,0.0,0.0,77,0.00,,,0.00,WUHU21623XXSP,2013-03-05 06:36:00,
2013-03-05 01:41:00,16.9,10.8,30.64,SW,225,0.0,0.0,77,0.00,,,0.00,WUHU21623XXSP,2013-03-05 06:41:00,
2013-03-05 01:46:00,16.7,11.0,30.64,SW,225,0.0,0.0,78,0.00,,,0.00,WUHU21623XXSP,2013-03-05 06:46:00,
2013-03-05 01:51:00,16.7,11.0,30.64,SW,225,0.0,0.0,78,0.00,,,0.00,WUHU21623XXSP,2013-03-05 06:51:00,
2013-03-05 01:56:00,16.5,10.8,30.64,SW,225,0.0,0.0,78,0.00,,,0.00,WUHU21623XXSP,2013-03-05 06:56:00,
2013-03-05 02:01:00,16.5,10.8,30.64,SW,225,0.0,0.0,78,0.00,,,0.00,WUHU21623XXSP,2013-03-05 07:01:00,
2013-03-05 02:06:00,16.5,10.8,30.64,SW,225,0.0,0.0,78,0.00,,,0.00,WUHU21623XXSP,2013-03-05 07:06:00,
2013-03-05 02:11:00,16.3,10.6,30.64,SW,225,0.0,0.0,78,0.00,,,0.00,WUHU21623XXSP,2013-03-05 07:11:00,
2013-03-05 02:16:00,16.3,10.6,30.64,SW,225,0.0,0.0,78,0.00,,,0.00,WUHU21623XXSP,2013-03-05 07:16:00,
2013-03-05 02:21:00,16.2,10.5,30.64,SW,225,0.0,0.0,78,0.00,,,0.00,WUHU21623XXSP,2013-03-05 07:21:00,
2013-03-05 02:26:00,16.0,10.6,30.64,SW,225,0.0,0.0,79,0.00,,,0.00,WUHU21623XXSP,2013-03-05 07:26:00,
2013-03-05 02:31:00,16.0,10.6,30.64,SW,225,0.0,0.0,79,0.00,,,0.00,WUHU21623XXSP,2013-03-05 07:31:00,
2013-03-05 02:36:00,15.8,10.5,30.64,SW,225,0.0,0.0,79,0.00,,,0.00,WUHU21623XXSP,2013-03-05 07:36:00,
2013-03-05 02:41:00,15.6,10.3,30.63,SW,225,0.0,0.0,79,0.00,,,0.00,WUHU21623XXSP,2013-03-05 07:41:00,
2013-03-05 02:46:00,15.6,10.3,30.63,SW,225,0.0,0.0,79,0.00,,,0.00,WUHU21623XXSP,2013-03-05 07:46:00,
2013-03-05 02:51:00,15.6,10.3,30.63,SW,225,0.0,0.0,79,0.00,,,0.00,WUHU21623XXSP,2013-03-05 07:51:00,
2013-03-05 02:56:00,15.6,10.3,30.63,SW,225,0.0,0.0,79,0.00,,,0.00,WUHU21623XXSP,2013-03-05 07:56:00,
2013-03-05 03:01:00,15.4,10.1,30.63,SW,225,0.0,0.0,79,0.00,,,0.00,WUHU21623XXSP,2013-03-05 08:01:00,
2013-03-05 03:06:00,15.3,9.9,30.62,SW,225,0.0,0.0,79,0.00,,,0.00,WUHU21623XXSP,2013-03-05 08:06:00,
2013-03-05 03:11:00,15.1,9.7,30.62,SW,225,0.0,0.0,79,0.00,,,0.00,WUHU21623XXSP,2013-03-05 08:11:00,
2013-03-05 03:16:00,15.1,9.7,30.61,SW,225,0.0,0.0,79,0.00,,,0.00,WUHU21623XXSP,2013-03-05 08:16:00,
2013-03-05 03:21:00,14.9,9.9,30.62,SW,225,0.0,0.0,80,0.00,,,0.00,WUHU21623XXSP,2013-03-05 08:21:00,
2013-03-05 03:26:00,14.9,9.9,30.62,SW,225,0.0,0.0,80,0.00,,,0.00,WUHU21623XXSP,2013-03-05 08:26:00,
2013-03-05 03:31:00,14.7,9.9,30.61,SW,225,0.0,0.0,80,0.00,,,0.00,WUHU21623XXSP,2013-03-05 08:31:00,
2013-03-05 03:37:00,14.7,9.7,30.61,SW,225,0.0,0.0,80,0.00,,,0.00,WUHU21623XXSP,2013-03-05 08:37:00,
2013-03-05 03:42:00,14.7,9.7,30.61,SW,225,0.0,0.0,80,0.00,,,0.00,WUHU21623XXSP,2013-03-05 08:42:00,
2013-03-05 03:47:00,14.5,9.5,30.61,SW,225,0.0,0.0,80,0.00,,,0.00,WUHU21623XXSP,2013-03-05 08:47:00,
2013-03-05 03:52:00,14.5,9.5,30.61,SW,225,0.0,0.0,80,0.00,,,0.00,WUHU21623XXSP,2013-03-05 08:52:00,
2013-03-05 03:57:00,14.4,9.5,30.61,SW,225,0.0,0.0,80,0.00,,,0.00,WUHU21623XXSP,2013-03-05 08:57:00,
2013-03-05 04:02:00,14.4,9.3,30.61,SW,225,0.0,0.0,81,0.00,,,0.00,WUHU21623XXSP,2013-03-05 09:02:00,
2013-03-05 04:07:00,14.2,9.4,30.61,SW,225,0.0,0.0,81,0.00,,,0.00,WUHU21623XXSP,2013-03-05 09:07:00,
2013-03-05 04:12:00,14.2,9.4,30.61,SW,225,0.0,0.0,81,0.00,,,0.00,WUHU21623XXSP,2013-03-05 09:12:00,
2013-03-05 04:17:00,14.2,9.4,30.61,SW,225,0.0,0.0,81,0.00,,,0.00,WUHU21623XXSP,2013-03-05 09:17:00,
2013-03-05 04:22:00,14.2,9.4,30.61,SW,225,0.0,0.0,81,0.00,,,0.00,WUHU21623XXSP,2013-03-05 09:22:00,
2013-03-05 04:27:00,14.2,9.4,30.61,SW,225,0.0,0.0,81,0.00,,,0.00,WUHU21623XXSP,2013-03-05 09:27:00,
2013-03-05 04:32:00,14.2,9.4,30.61,SW,225,0.0,0.0,81,0.00,,,0.00,WUHU21623XXSP,2013-03-05 09:32:00,
2013-03-05 04:37:00,14.0,9.2,30.61,SW,225,0.0,0.0,81,0.00,,,0.00,WUHU21623XXSP,2013-03-05 09:37:00,
2013-03-05 04:42:00,13.8,9.1,30.61,SW,225,0.0,0.0,81,0.00,,,0.00,WUHU21623XXSP,2013-03-05 09:42:00,
2013-03-05 04:47:00,13.8,9.1,30.60,SW,225,0.0,0.0,81,0.00,,,0.00,WUHU21623XXSP,2013-03-05 09:47:00,
2013-03-05 04:52:00,13.8,9.1,30.60,SW,225,0.0,0.0,81,0.00,,,0.00,WUHU21623XXSP,2013-03-05 09:52:00,
2013-03-05 04:57:00,13.6,8.9,30.59,SW,225,0.0,0.0,81,0.00,,,0.00,WUHU21623XXSP,2013-03-05 09:57:00,
2013-03-05 05:02:00,13.6,8.9,30.59,SW,225,0.0,0.0,81,0.00,,,0.00,WUHU21623XXSP,2013-03-05 10:02:00,
2013-03-05 05:07:00,13.6,8.9,30.59,SW,225,0.0,0.0,81,0.00,,,0.00,WUHU21623XXSP,2013-03-05 10:07:00,
2013-03-05 05:12:00,13.3,8.5,30.59,SW,225,0.0,0.0,81,0.00,,,0.00,WUHU21623XXSP,2013-03-05 10:12:00,
2013-03-05 05:17:00,13.6,8.9,30.60,SW,225,0.0,0.0,81,0.00,,,0.00,WUHU21623XXSP,2013-03-05 10:17:00,
2013-03-05 05:22:00,13.6,8.9,30.59,SW,225,0.0,0.0,81,0.00,,,0.00,WUHU21623XXSP,2013-03-05 10:22:00,
2013-03-05 05:27:00,13.6,8.9,30.59,SW,225,0.0,0.0,81,0.00,,,0.00,WUHU21623XXSP,2013-03-05 10:27:00,
2013-03-05 05:32:00,13.6,8.9,30.59,SW,225,0.0,0.0,81,0.00,,,0.00,WUHU21623XXSP,2013-03-05 10:32:00,
2013-03-05 05:37:00,13.6,8.9,30.59,SW,225,0.0,0.0,81,0.00,,,0.00,WUHU21623XXSP,2013-03-05 10:37:00,
2013-03-05 05:42:00,13.6,8.9,30.60,SW,225,0.0,0.0,81,0.00,,,0.00,WUHU21623XXSP,2013-03-05 10:42:00,
2013-03-05 05:47:00,13.6,8.9,30.60,SW,225,0.0,0.0,81,0.00,,,0.00,WUHU21623XXSP,2013-03-05 10:47:00,
2013-03-05 05:52:00,13.6,8.9,30.59,SW,225,0.0,0.0,81,0.00,,,0.00,WUHU21623XXSP,2013-03-05 10:52:00,
2013-03-05 05:57:00,13.6,8.9,30.59,SW,225,0.0,0.0,81,0.00,,,0.00,WUHU21623XXSP,2013-03-05 10:57:00,
2013-03-05 06:02:00,13.6,8.9,30.59,SW,225,0.0,0.0,81,0.00,,,0.00,WUHU21623XXSP,2013-03-05 11:02:00,
2013-03-05 06:07:00,13.6,8.9,30.59,SW,225,0.0,0.0,81,0.00,,,0.00,WUHU21623XXSP,2013-03-05 11:07:00,
2013-03-05 06:12:00,13.6,8.9,30.59,SW,225,0.0,0.0,81,0.00,,,0.00,WUHU21623XXSP,2013-03-05 11:12:00,
2013-03-05 06:17:00,13.6,8.9,30.59,SW,225,0.0,0.0,81,0.00,,,0.00,WUHU21623XXSP,2013-03-05 11:17:00,
2013-03-05 06:22:00,13.8,9.3,30.59,SW,225,0.0,0.0,82,0.00,,,0.00,WUHU21623XXSP,2013-03-05 11:22:00,
2013-03-05 06:27:00,13.8,9.3,30.59,SW,225,0.0,0.0,82,0.00,,,0.00,WUHU21623XXSP,2013-03-05 11:27:00,
2013-03-05 06:32:00,13.8,9.3,30.59,SW,225,0.0,0.0,82,0.00,,,0.00,WUHU21623XXSP,2013-03-05 11:32:00,
2013-03-05 06:37:00,14.2,9.7,30.59,SW,225,0.0,0.0,82,0.00,,,0.00,WUHU21623XXSP,2013-03-05 11:37:00,
2013-03-05 06:42:00,14.2,9.7,30.59,SW,225,0.0,0.0,82,0.00,,,0.00,WUHU21623XXSP,2013-03-05 11:42:00,
2013-03-05 06:47:00,14.2,9.7,30.59,SW,225,0.0,0.0,82,0.00,,,0.00,WUHU21623XXSP,2013-03-05 11:47:00,
2013-03-05 06:52:00,14.2,9.7,30.59,SW,225,0.0,0.0,82,0.00,,,0.00,WUHU21623XXSP,2013-03-05 11:52:00,
2013-03-05 06:57:00,14.4,9.8,30.59,SW,225,0.0,0.0,82,0.00,,,0.00,WUHU21623XXSP,2013-03-05 11:57:00,
2013-03-05 07:02:00,14.2,9.9,30.59,SW,225,0.0,0.0,83,0.00,,,0.00,WUHU21623XXSP,2013-03-05 12:02:00,
2013-03-05 07:07:00,14.2,9.9,30.58,SW,225,0.0,0.0,83,0.00,,,0.00,WUHU21623XXSP,2013-03-05 12:07:00,
2013-03-05 07:12:00,14.2,9.9,30.59,SW,225,0.0,0.0,83,0.00,,,0.00,WUHU21623XXSP,2013-03-05 12:12:00,
2013-03-05 07:17:00,14.2,9.9,30.58,SW,225,0.0,0.0,83,0.00,,,0.00,WUHU21623XXSP,2013-03-05 12:17:00,
2013-03-05 07:22:00,14.2,9.9,30.59,SW,225,0.0,0.0,83,0.00,,,0.00,WUHU21623XXSP,2013-03-05 12:22:00,
2013-03-05 07:27:00,14.2,9.9,30.58,SW,225,0.0,0.0,83,0.00,,,0.00,WUHU21623XXSP,2013-03-05 12:27:00,
2013-03-05 07:32:00,14.4,10.1,30.59,SW,225,0.0,0.0,83,0.00,,,0.00,WUHU21623XXSP,2013-03-05 12:32:00,
2013-03-05 07:37:00,14.4,10.1,30.59,SW,225,0.0,0.0,83,0.00,,,0.00,WUHU21623XXSP,2013-03-05 12:37:00,
2013-03-05 07:43:00,14.5,10.1,30.59,SW,225,0.0,0.0,83,0.00,,,0.00,WUHU21623XXSP,2013-03-05 12:43:00,
2013-03-05 07:48:00,14.5,10.3,30.59,SW,225,0.0,0.0,83,0.00,,,0.00,WUHU21623XXSP,2013-03-05 12:48:00,
2013-03-05 07:53:00,14.7,10.5,30.58,SW,225,0.0,0.0,83,0.00,,,0.00,WUHU21623XXSP,2013-03-05 12:53:00,
2013-03-05 07:58:00,14.9,10.6,30.59,SW,225,0.0,0.0,83,0.00,,,0.00,WUHU21623XXSP,2013-03-05 12:58:00,
2013-03-05 08:03:00,15.3,11.0,30.58,SW,225,0.0,0.0,83,0.00,,,0.00,WUHU21623XXSP,2013-03-05 13:03:00,
2013-03-05 08:08:00,15.6,11.6,30.58,SW,225,0.0,0.0,84,0.00,,,0.00,WUHU21623XXSP,2013-03-05 13:08:00,
2013-03-05 08:13:00,16.2,12.1,30.59,SW,225,0.0,0.0,84,0.00,,,0.00,WUHU21623XXSP,2013-03-05 13:13:00,
2013-03-05 08:18:00,16.5,12.4,30.58,SW,225,0.0,0.0,84,0.00,,,0.00,WUHU21623XXSP,2013-03-05 13:18:00,
2013-03-05 08:23:00,16.9,12.8,30.58,SW,225,0.0,0.0,84,0.00,,,0.00,WUHU21623XXSP,2013-03-05 13:23:00,
2013-03-05 08:28:00,17.4,13.3,30.58,SW,225,0.0,0.0,84,0.00,,,0.00,WUHU21623XXSP,2013-03-05 13:28:00,
2013-03-05 08:33:00,18.3,14.2,30.58,WSW,247,0.0,0.0,84,0.00,,,0.00,WUHU21623XXSP,2013-03-05 13:33:00,
2013-03-05 08:38:00,19.0,14.9,30.58,WSW,247,0.0,0.0,84,0.00,,,0.00,WUHU21623XXSP,2013-03-05 13:38:00,
2013-03-05 08:43:00,19.4,15.3,30.58,WSW,247,0.0,0.0,84,0.00,,,0.00,WUHU21623XXSP,2013-03-05 13:43:00,
2013-03-05 08:48:00,20.3,15.9,30.58,WSW,247,0.0,0.0,83,0.00,,,0.00,WUHU21623XXSP,2013-03-05 13:48:00,
2013-03-05 08:53:00,20.8,16.4,30.58,SSW,202,0.0,0.0,83,0.00,,,0.00,WUHU21623XXSP,2013-03-05 13:53:00,
2013-03-05 08:58:00,21.4,16.7,30.58,WSW,247,0.0,0.0,82,0.00,,,0.00,WUHU21623XXSP,2013-03-05 13:58:00,
2013-03-05 09:03:00,21.9,17.0,30.57,WSW,247,0.0,0.0,81,0.00,,,0.00,WUHU21623XXSP,2013-03-05 14:03:00,
2013-03-05 09:08:00,22.3,17.3,30.58,SW,225,0.0,0.0,81,0.00,,,0.00,WUHU21623XXSP,2013-03-05 14:08:00,
2013-03-05 09:13:00,22.8,17.6,30.57,South,180,0.0,0.0,80,0.00,,,0.00,WUHU21623XXSP,2013-03-05 14:13:00,
2013-03-05 09:18:00,23.4,18.1,30.58,WSW,247,0.0,0.0,80,0.00,,,0.00,WUHU21623XXSP,2013-03-05 14:18:00,
2013-03-05 09:23:00,24.1,18.5,30.57,ESE,112,0.0,0.0,79,0.00,,,0.00,WUHU21623XXSP,2013-03-05 14:23:00,
2013-03-05 09:28:00,24.4,18.6,30.57,SW,225,0.0,0.0,78,0.00,,,0.00,WUHU21623XXSP,2013-03-05 14:28:00,
2013-03-05 09:33:00,25.0,18.8,30.57,SW,225,0.0,0.0,77,0.00,,,0.00,WUHU21623XXSP,2013-03-05 14:33:00,
2013-03-05 09:38:00,25.3,18.8,30.57,WSW,247,0.0,0.0,76,0.00,,,0.00,WUHU21623XXSP,2013-03-05 14:38:00,
2013-03-05 09:43:00,25.7,19.1,30.57,WSW,247,0.0,0.0,76,0.00,,,0.00,WUHU21623XXSP,2013-03-05 14:43:00,
2013-03-05 09:48:00,26.2,19.0,30.57,WSW,247,0.0,0.0,74,0.00,,,0.00,WUHU21623XXSP,2013-03-05 14:48:00,
2013-03-05 09:53:00,26.4,19.2,30.57,SW,225,0.0,0.0,74,0.00,,,0.00,WUHU21623XXSP,2013-03-05 14:53:00,
2013-03-05 09:58:00,26.8,19.5,30.56,SW,225,0.0,0.0,74,0.00,,,0.00,WUHU21623XXSP,2013-03-05 14:58:00,
2013-03-05 10:03:00,27.1,19.6,30.56,SSW,202,0.0,0.0,73,0.00,,,0.00,WUHU21623XXSP,2013-03-05 15:03:00,
2013-03-05 10:08:00,27.1,19.6,30.56,WSW,247,0.0,0.0,73,0.00,,,0.00,WUHU21623XXSP,2013-03-05 15:08:00,
2013-03-05 10:13:00,27.3,19.5,30.56,WSW,247,1.8,1.8,72,0.00,,,0.00,WUHU21623XXSP,2013-03-05 15:13:00,
2013-03-05 10:18:00,27.5,19.7,30.55,WSW,247,0.0,1.8,72,0.00,,,0.00,WUHU21623XXSP,2013-03-05 15:18:00,
2013-03-05 10:23:00,27.9,20.0,30.56,SSE,157,0.0,0.0,72,0.00,,,0.00,WUHU21623XXSP,2013-03-05 15:23:00,
2013-03-05 10:28:00,28.0,19.9,30.56,SE,135,0.0,0.0,71,0.00,,,0.00,WUHU21623XXSP,2013-03-05 15:28:00,
2013-03-05 10:33:00,28.2,20.1,30.55,SW,225,0.0,0.0,71,0.00,,,0.00,WUHU21623XXSP,2013-03-05 15:33:00,
2013-03-05 10:38:00,28.6,20.4,30.55,SSE,157,0.0,0.0,71,0.00,,,0.00,WUHU21623XXSP,2013-03-05 15:38:00,
2013-03-05 10:43:00,29.1,20.7,30.55,SW,225,0.0,0.0,71,0.00,,,0.00,WUHU21623XXSP,2013-03-05 15:43:00,
2013-03-05 10:48:00,29.1,20.6,30.55,WSW,247,1.6,1.6,70,0.00,,,0.00,WUHU21623XXSP,2013-03-05 15:48:00,
2013-03-05 10:53:00,29.5,20.6,30.55,WSW,247,1.6,1.6,70,0.00,,,0.00,WUHU21623XXSP,2013-03-05 15:53:00,
2013-03-05 10:58:00,30.0,21.7,30.55,NNW,337,0.0,1.6,71,0.00,,,0.00,WUHU21623XXSP,2013-03-05 15:58:00,
2013-03-05 11:03:00,30.7,22.1,30.55,East,90,0.0,0.0,70,0.00,,,0.00,WUHU21623XXSP,2013-03-05 16:03:00,
2013-03-05 11:08:00,30.9,22.1,30.55,East,90,0.0,0.0,70,0.00,,,0.00,WUHU21623XXSP,2013-03-05 16:08:00,
2013-03-05 11:13:00,30.9,21.9,30.54,WSW,247,0.0,2.9,69,0.00,,,0.00,WUHU21623XXSP,2013-03-05 16:13:00,
2013-03-05 11:18:00,30.9,21.9,30.55,WSW,247,2.2,2.9,69,0.00,,,0.00,WUHU21623XXSP,2013-03-05 16:18:00,
2013-03-05 11:23:00,30.9,21.9,30.54,WSW,247,0.0,2.2,69,0.00,,,0.00,WUHU21623XXSP,2013-03-05 16:23:00,
2013-03-05 11:28:00,31.1,22.1,30.53,WSW,247,0.0,2.2,69,0.00,,,0.00,WUHU21623XXSP,2013-03-05 16:28:00,
2013-03-05 11:33:00,30.9,21.9,30.53,South,180,0.0,2.2,69,0.00,,,0.00,WUHU21623XXSP,2013-03-05 16:33:00,
2013-03-05 11:38:00,31.3,22.1,30.53,South,180,0.0,1.3,69,0.00,,,0.00,WUHU21623XXSP,2013-03-05 16:38:00,
2013-03-05 11:43:00,31.3,22.3,30.54,SW,225,0.0,1.8,69,0.00,,,0.00,WUHU21623XXSP,2013-03-05 16:43:00,
2013-03-05 11:48:00,31.3,22.3,30.53,SSW,202,0.0,3.6,69,0.00,,,0.00,WUHU21623XXSP,2013-03-05 16:48:00,
2013-03-05 11:53:00,31.6,22.6,30.53,WSW,247,2.9,3.6,69,0.00,,,0.00,WUHU21623XXSP,2013-03-05 16:53:00,
2013-03-05 11:58:00,31.8,23.2,30.53,East,90,0.0,2.9,70,0.00,,,0.00,WUHU21623XXSP,2013-03-05 16:58:00,
2013-03-05 12:04:00,32.2,23.5,30.53,WSW,247,2.9,2.9,70,0.00,,,0.00,WUHU21623XXSP,2013-03-05 17:04:00,
2013-03-05 12:09:00,32.4,23.7,30.53,ENE,67,0.0,2.9,70,0.00,,,0.00,WUHU21623XXSP,2013-03-05 17:09:00,
2013-03-05 12:14:00,33.3,24.5,30.53,ESE,112,0.0,0.0,70,0.00,,,0.00,WUHU21623XXSP,2013-03-05 17:14:00,
2013-03-05 12:19:00,33.6,24.7,30.52,ESE,112,0.0,0.0,69,0.00,,,0.00,WUHU21623XXSP,2013-03-05 17:19:00,
2013-03-05 12:24:00,34.0,24.4,30.53,SSW,202,0.0,0.0,68,0.00,,,0.00,WUHU21623XXSP,2013-03-05 17:24:00,
2013-03-05 12:29:00,34.0,24.8,30.52,East,90,0.0,0.0,69,0.00,,,0.00,WUHU21623XXSP,2013-03-05 17:29:00,
2013-03-05 12:34:00,33.6,23.7,30.52,WSW,247,4.7,4.7,67,0.00,,,0.00,WUHU21623XXSP,2013-03-05 17:34:00,
2013-03-05 12:39:00,32.9,23.4,30.52,WSW,247,4.7,4.7,67,0.00,,,0.00,WUHU21623XXSP,2013-03-05 17:39:00,
2013-03-05 12:44:00,32.7,23.3,30.52,East,90,0.0,4.7,68,0.00,,,0.00,WUHU21623XXSP,2013-03-05 17:44:00,
2013-03-05 12:49:00,32.7,23.3,30.52,ESE,112,0.0,2.5,68,0.00,,,0.00,WUHU21623XXSP,2013-03-05 17:49:00,
2013-03-05 12:54:00,32.9,23.3,30.52,ESE,112,0.0,2.5,68,0.00,,,0.00,WUHU21623XXSP,2013-03-05 17:54:00,
2013-03-05 12:59:00,33.1,23.6,30.52,ESE,112,0.0,0.0,68,0.00,,,0.00,WUHU21623XXSP,2013-03-05 17:59:00,
2013-03-05 13:04:00,33.1,23.6,30.52,NE,45,0.0,0.0,68,0.00,,,0.00,WUHU21623XXSP,2013-03-05 18:04:00,
2013-03-05 13:09:00,33.1,23.6,30.52,SSW,202,0.0,0.0,68,0.00,,,0.00,WUHU21623XXSP,2013-03-05 18:09:00,
2013-03-05 13:14:00,32.7,23.3,30.51,ESE,112,0.0,2.5,68,0.00,,,0.00,WUHU21623XXSP,2013-03-05 18:14:00,
2013-03-05 13:19:00,32.5,23.1,30.51,NE,45,0.0,2.5,68,0.00,,,0.00,WUHU21623XXSP,2013-03-05 18:19:00,
2013-03-05 13:24:00,32.5,23.5,30.51,WSW,247,1.6,1.6,69,0.00,,,0.00,WUHU21623XXSP,2013-03-05 18:24:00,
2013-03-05 13:29:00,32.5,23.5,30.50,NNW,337,0.0,1.6,69,0.00,,,0.00,WUHU21623XXSP,2013-03-05 18:29:00,
2013-03-05 13:34:00,32.4,23.3,30.50,WSW,247,0.0,0.0,69,0.00,,,0.00,WUHU21623XXSP,2013-03-05 18:34:00,
2013-03-05 13:39:00,32.4,23.3,30.50,West,270,0.0,0.0,69,0.00,,,0.00,WUHU21623XXSP,2013-03-05 18:39:00,
2013-03-05 13:44:00,32.5,23.5,30.49,ESE,112,0.0,2.5,69,0.00,,,0.00,WUHU21623XXSP,2013-03-05 18:44:00,
2013-03-05 13:49:00,32.5,23.6,30.50,WSW,247,4.5,4.5,69,0.00,,,0.00,WUHU21623XXSP,2013-03-05 18:49:00,
2013-03-05 13:54:00,32.4,23.7,30.49,West,270,0.0,4.5,70,0.00,,,0.00,WUHU21623XXSP,2013-03-05 18:54:00,
2013-03-05 13:59:00,32.4,23.7,30.49,WSW,247,1.3,1.3,70,0.00,,,0.00,WUHU21623XXSP,2013-03-05 18:59:00,
2013-03-05 14:05:00,32.2,23.8,30.49,East,90,0.0,1.3,71,0.00,,,0.00,WUHU21623XXSP,2013-03-05 19:05:00,
2013-03-05 14:10:00,32.2,23.8,30.49,SW,225,0.0,0.0,71,0.00,,,0.00,WUHU21623XXSP,2013-03-05 19:10:00,
2013-03-05 14:15:00,32.2,23.8,30.48,SW,225,2.7,2.7,71,0.00,,,0.00,WUHU21623XXSP,2013-03-05 19:15:00,
2013-03-05 14:20:00,31.8,23.8,30.48,WSW,247,3.6,3.6,72,0.00,,,0.00,WUHU21623XXSP,2013-03-05 19:20:00,
2013-03-05 14:25:00,31.8,23.8,30.48,WSW,247,3.6,3.6,72,0.00,,,0.00,WUHU21623XXSP,2013-03-05 19:25:00,
2013-03-05 14:30:00,31.6,23.6,30.48,WSW,247,0.0,5.4,72,0.00,,,0.00,WUHU21623XXSP,2013-03-05 19:30:00,
2013-03-05 14:35:00,31.6,24.0,30.47,WSW,247,1.6,5.4,73,0.00,,,0.00,WUHU21623XXSP,2013-03-05 19:35:00,
2013-03-05 14:40:00,31.6,24.0,30.47,WSW,247,3.1,3.1,73,0.00,,,0.00,WUHU21623XXSP,2013-03-05 19:40:00,
2013-03-05 14:45:00,31.3,23.6,30.47,WSW,247,4.5,4.5,73,0.00,,,0.00,WUHU21623XXSP,2013-03-05 19:45:00,
2013-03-05 14:50:00,31.1,23.8,30.46,WSW,247,1.3,4.5,74,0.00,,,0.00,WUHU21623XXSP,2013-03-05 19:50:00,
2013-03-05 14:55:00,31.1,23.8,30.46,West,270,2.0,5.1,74,0.00,,,0.00,WUHU21623XXSP,2013-03-05 19:55:00,
2013-03-05 15:00:00,30.9,23.9,30.46,WSW,247,0.0,5.1,75,0.00,,,0.00,WUHU21623XXSP,2013-03-05 20:00:00,
2013-03-05 15:05:00,30.9,23.9,30.46,SW,225,4.0,4.7,75,0.00,,,0.00,WUHU21623XXSP,2013-03-05 20:05:00,
2013-03-05 15:10:00,30.9,23.6,30.46,WSW,247,4.7,4.7,74,0.00,,,0.00,WUHU21623XXSP,2013-03-05 20:10:00,
2013-03-05 15:15:00,30.7,23.7,30.46,WSW,247,4.7,5.6,75,0.00,,,0.00,WUHU21623XXSP,2013-03-05 20:15:00,
2013-03-05 15:20:00,30.7,23.7,30.45,WSW,247,0.0,5.6,75,0.00,,,0.00,WUHU21623XXSP,2013-03-05 20:20:00,
2013-03-05 15:25:00,30.6,23.5,30.45,East,90,0.0,6.7,75,0.00,,,0.00,WUHU21623XXSP,2013-03-05 20:25:00,
2013-03-05 15:30:00,30.6,23.7,30.46,SSW,202,2.9,6.7,75,0.00,,,0.00,WUHU21623XXSP,2013-03-05 20:30:00,
2013-03-05 15:35:00,30.6,23.5,30.45,NE,45,0.0,3.6,75,0.00,,,0.00,WUHU21623XXSP,2013-03-05 20:35:00,
2013-03-05 15:40:00,30.4,23.4,30.45,SSW,202,0.0,3.6,75,0.00,,,0.00,WUHU21623XXSP,2013-03-05 20:40:00,
2013-03-05 15:45:00,30.2,23.5,30.46,WSW,247,0.0,2.0,76,0.00,,,0.00,WUHU21623XXSP,2013-03-05 20:45:00,
2013-03-05 15:50:00,30.0,23.3,30.45,WSW,247,4.5,4.7,76,0.00,,,0.00,WUHU21623XXSP,2013-03-05 20:50:00,
2013-03-05 15:55:00,29.8,23.1,30.45,WSW,247,3.6,4.7,76,0.00,,,0.00,WUHU21623XXSP,2013-03-05 20:55:00,
2013-03-05 16:00:00,29.8,23.1,30.45,SW,225,0.0,4.3,76,0.00,,,0.00,WUHU21623XXSP,2013-03-05 21:00:00,
2013-03-05 16:05:00,30.0,23.3,30.45,SSW,202,4.5,4.5,76,0.00,,,0.00,WUHU21623XXSP,2013-03-05 21:05:00,
2013-03-05 16:10:00,30.0,23.3,30.45,West,270,7.4,7.4,76,0.00,,,0.00,WUHU21623XXSP,2013-03-05 21:10:00,
2013-03-05 16:15:00,29.7,23.0,30.44,West,270,3.4,7.4,76,0.00,,,0.00,WUHU21623XXSP,2013-03-05 21:15:00,
2013-03-05 16:20:00,29.7,23.3,30.45,West,270,4.5,4.7,77,0.00,,,0.00,WUHU21623XXSP,2013-03-05 21:20:00,
2013-03-05 16:25:00,29.3,22.9,30.44,South,180,0.0,4.7,77,0.00,,,0.00,WUHU21623XXSP,2013-03-05 21:25:00,
2013-03-05 16:30:00,29.1,22.8,30.44,WSW,247,1.3,4.3,77,0.00,,,0.00,WUHU21623XXSP,2013-03-05 21:30:00,
2013-03-05 16:35:00,29.1,22.8,30.44,SW,225,7.4,7.4,77,0.00,,,0.00,WUHU21623XXSP,2013-03-05 21:35:00,
2013-03-05 16:41:00,29.1,22.8,30.44,WSW,247,0.0,7.4,77,0.00,,,0.00,WUHU21623XXSP,2013-03-05 21:41:00,
2013-03-05 16:46:00,28.9,22.6,30.44,SW,225,5.4,5.4,77,0.00,,,0.00,WUHU21623XXSP,2013-03-05 21:46:00,
2013-03-05 16:51:00,28.8,22.4,30.44,SE,135,4.0,5.8,77,0.00,,,0.00,WUHU21623XXSP,2013-03-05 21:51:00,
2013-03-05 16:56:00,28.6,22.2,30.44,SW,225,1.8,5.8,77,0.00,,,0.00,WUHU21623XXSP,2013-03-05 21:56:00,
2013-03-05 17:01:00,28.6,22.2,30.44,WSW,247,5.1,5.1,77,0.00,,,0.00,WUHU21623XXSP,2013-03-05 22:01:00,
2013-03-05 17:06:00,28.6,22.5,30.44,SSW,202,0.0,5.1,78,0.00,,,0.00,WUHU21623XXSP,2013-03-05 22:06:00,
2013-03-05 17:11:00,28.4,22.4,30.43,WSW,247,2.7,2.7,78,0.00,,,0.00,WUHU21623XXSP,2013-03-05 22:11:00,
2013-03-05 17:16:00,28.2,22.5,30.43,SSW,202,2.5,2.7,79,0.00,,,0.00,WUHU21623XXSP,2013-03-05 22:16:00,
2013-03-05 17:21:00,28.0,22.3,30.43,WSW,247,4.7,4.7,79,0.00,,,0.00,WUHU21623XXSP,2013-03-05 22:21:00,
2013-03-05 17:26:00,28.0,22.6,30.43,SSE,157,0.0,5.4,80,0.00,,,0.00,WUHU21623XXSP,2013-03-05 22:26:00,
2013-03-05 17:31:00,28.0,22.6,30.43,WSW,247,0.9,5.4,80,0.00,,,0.00,WUHU21623XXSP,2013-03-05 22:31:00,
2013-03-05 17:36:00,27.7,22.3,30.43,WSW,247,2.7,2.7,80,0.00,,,0.00,WUHU21623XXSP,2013-03-05 22:36:00,
2013-03-05 17:41:00,27.7,22.3,30.43,SW,225,2.2,4.5,80,0.00,,,0.00,WUHU21623XXSP,2013-03-05 22:41:00,
2013-03-05 17:46:00,27.7,22.6,30.43,WSW,247,0.0,5.4,81,0.00,,,0.00,WUHU21623XXSP,2013-03-05 22:46:00,
2013-03-05 17:51:00,27.5,22.4,30.43,West,270,0.0,5.4,81,0.00,,,0.00,WUHU21623XXSP,2013-03-05 22:51:00,
2013-03-05 17:56:00,27.3,22.2,30.43,WSW,247,8.9,8.9,81,0.00,,,0.00,WUHU21623XXSP,2013-03-05 22:56:00,
2013-03-05 18:01:00,27.1,22.3,30.43,WSW,247,1.8,8.9,82,0.00,,,0.00,WUHU21623XXSP,2013-03-05 23:01:00,
2013-03-05 18:06:00,27.1,22.3,30.44,WSW,247,6.0,6.0,82,0.00,,,0.00,WUHU21623XXSP,2013-03-05 23:06:00,
2013-03-05 18:11:00,27.1,22.3,30.43,SW,225,1.1,6.0,82,0.00,,,0.00,WUHU21623XXSP,2013-03-05 23:11:00,
2013-03-05 18:16:00,26.8,22.1,30.43,WSW,247,7.2,7.2,82,0.00,,,0.00,WUHU21623XXSP,2013-03-05 23:16:00,
2013-03-05 18:21:00,26.8,22.0,30.44,SW,225,2.0,7.2,82,0.00,,,0.00,WUHU21623XXSP,2013-03-05 23:21:00,
2013-03-05 18:26:00,27.0,22.1,30.43,WSW,247,4.5,4.5,82,0.00,,,0.00,WUHU21623XXSP,2013-03-05 23:26:00,
2013-03-05 18:31:00,26.8,22.0,30.43,SSW,202,0.0,4.5,82,0.00,,,0.00,WUHU21623XXSP,2013-03-05 23:31:00,
2013-03-05 18:36:00,26.8,22.2,30.44,SW,225,2.5,3.6,83,0.00,,,0.00,WUHU21623XXSP,2013-03-05 23:36:00,
2013-03-05 18:41:00,26.8,22.2,30.44,WSW,247,3.8,7.4,83,0.00,,,0.00,WUHU21623XXSP,2013-03-05 23:41:00,
2013-03-05 18:46:00,26.6,22.1,30.44,SSW,202,2.0,7.4,83,0.00,,,0.00,WUHU21623XXSP,2013-03-05 23:46:00,
2013-03-05 18:51:00,26.6,22.1,30.44,WSW,247,3.4,3.4,83,0.00,,,0.00,WUHU21623XXSP,2013-03-05 23:51:00,
2013-03-05 18:56:00,26.6,22.1,30.45,WSW,247,0.0,4.5,83,0.00,,,0.00,WUHU21623XXSP,2013-03-05 23:56:00,
2013-03-05 19:01:00,26.6,22.1,30.45,WSW,247,3.1,4.5,83,0.00,,,0.00,WUHU21623XXSP,2013-03-06 00:01:00,
2013-03-05 19:06:00,26.4,22.2,30.45,WSW,247,4.0,4.0,84,0.00,,,0.00,WUHU21623XXSP,2013-03-06 00:06:00,
2013-03-05 19:11:00,26.4,22.2,30.46,WSW,247,3.6,4.0,84,0.00,,,0.00,WUHU21623XXSP,2013-03-06 00:11:00,
2013-03-05 19:16:00,26.4,22.2,30.46,WSW,247,6.0,6.0,84,0.00,,,0.00,WUHU21623XXSP,2013-03-06 00:16:00,
2013-03-05 19:21:00,26.4,22.2,30.46,SW,225,3.6,6.0,84,0.00,,,0.00,WUHU21623XXSP,2013-03-06 00:21:00,
2013-03-05 19:26:00,26.4,22.2,30.46,SW,225,0.0,3.6,84,0.00,,,0.00,WUHU21623XXSP,2013-03-06 00:26:00,
2013-03-05 19:31:00,26.4,22.2,30.47,East,90,0.0,4.7,84,0.00,,,0.00,WUHU21623XXSP,2013-03-06 00:31:00,
2013-03-05 19:36:00,26.4,22.2,30.47,SE,135,0.0,6.5,84,0.00,,,0.00,WUHU21623XXSP,2013-03-06 00:36:00,
2013-03-05 19:41:00,26.4,22.2,30.47,SSE,157,0.0,6.5,84,0.00,,,0.00,WUHU21623XXSP,2013-03-06 00:41:00,
2013-03-05 19:46:00,26.4,22.2,30.47,SW,225,1.8,3.8,84,0.00,,,0.00,WUHU21623XXSP,2013-03-06 00:46:00,
2013-03-05 19:51:00,26.6,22.4,30.46,SW,225,0.0,1.8,84,0.00,,,0.00,WUHU21623XXSP,2013-03-06 00:51:00,
2013-03-05 19:56:00,26.6,22.4,30.46,WSW,247,2.7,2.7,84,0.00,,,0.00,WUHU21623XXSP,2013-03-06 00:56:00,
2013-03-05 20:01:00,26.6,22.4,30.46,SW,225,8.3,8.3,84,0.00,,,0.00,WUHU21623XXSP,2013-03-06 01:01:00,
2013-03-05 20:06:00,26.8,22.8,30.46,West,270,3.1,8.3,85,0.00,,,0.00,WUHU21623XXSP,2013-03-06 01:06:00,
2013-03-05 20:12:00,26.8,22.8,30.46,SW,225,0.0,4.0,85,0.00,,,0.00,WUHU21623XXSP,2013-03-06 01:12:00,
2013-03-05 20:17:00,26.8,22.8,30.45,WSW,247,5.1,5.1,85,0.00,,,0.00,WUHU21623XXSP,2013-03-06 01:17:00,
2013-03-05 20:22:00,26.8,22.8,30.45,WSW,247,4.3,5.1,85,0.00,,,0.00,WUHU21623XXSP,2013-03-06 01:22:00,
2013-03-05 20:27:00,26.8,22.8,30.45,WSW,247,2.9,4.3,85,0.00,,,0.00,WUHU21623XXSP,2013-03-06 01:27:00,
2013-03-05 20:32:00,27.0,23.0,30.46,WSW,247,3.6,3.6,85,0.00,,,0.00,WUHU21623XXSP,2013-03-06 01:32:00,
2013-03-05 20:37:00,27.0,23.0,30.45,WSW,247,3.6,4.5,85,0.00,,,0.00,WUHU21623XXSP,2013-03-06 01:37:00,
2013-03-05 20:42:00,27.0,23.0,30.46,WSW,247,4.7,4.7,85,0.00,,,0.00,WUHU21623XXSP,2013-03-06 01:42:00,
2013-03-05 20:47:00,27.0,23.0,30.46,WSW,247,4.0,4.7,85,0.00,,,0.00,WUHU21623XXSP,2013-03-06 01:47:00,
2013-03-05 20:52:00,27.1,23.2,30.46,WSW,247,4.0,4.0,85,0.00,,,0.00,WUHU21623XXSP,2013-03-06 01:52:00,
2013-03-05 20:57:00,27.1,23.2,30.46,SE,135,0.0,4.0,85,0.00,,,0.00,WUHU21623XXSP,2013-03-06 01:57:00,
2013-03-05 21:02:00,27.1,23.2,30.46,WSW,247,6.0,6.0,85,0.00,,,0.00,WUHU21623XXSP,2013-03-06 02:02:00,
2013-03-05 21:07:00,27.1,23.2,30.46,WSW,247,1.8,6.0,85,0.00,,,0.00,WUHU21623XXSP,2013-03-06 02:07:00,
2013-03-05 21:12:00,27.1,23.2,30.45,WSW,247,1.3,3.6,85,0.00,,,0.00,WUHU21623XXSP,2013-03-06 02:12:00,
2013-03-05 21:17:00,27.3,23.4,30.46,WSW,247,4.9,4.9,85,0.00,,,0.00,WUHU21623XXSP,2013-03-06 02:17:00,
2013-03-05 21:22:00,27.3,23.4,30.46,WSW,247,1.6,4.9,85,0.00,,,0.00,WUHU21623XXSP,2013-03-06 02:22:00,
2013-03-05 21:27:00,27.3,23.4,30.45,WSW,247,3.4,3.8,85,0.00,,,0.00,WUHU21623XXSP,2013-03-06 02:27:00,
2013-03-05 21:32:00,27.5,23.5,30.46,WSW,247,2.0,3.4,85,0.00,,,0.00,WUHU21623XXSP,2013-03-06 02:32:00,
2013-03-05 21:37:00,27.5,23.5,30.45,WSW,247,1.6,4.9,85,0.00,,,0.00,WUHU21623XXSP,2013-03-06 02:37:00,
2013-03-05 21:42:00,27.7,23.7,30.45,WSW,247,4.9,4.9,85,0.00,,,0.00,WUHU21623XXSP,2013-03-06 02:42:00,
2013-03-05 21:47:00,27.7,23.7,30.45,SSW,202,1.6,4.9,85,0.00,,,0.00,WUHU21623XXSP,2013-03-06 02:47:00,
2013-03-05 21:52:00,27.7,23.7,30.45,WSW,247,0.0,3.1,85,0.00,,,0.00,WUHU21623XXSP,2013-03-06 02:52:00,
2013-03-05 21:57:00,27.7,23.7,30.45,WSW,247,0.0,3.1,85,0.00,,,0.00,WUHU21623XXSP,2013-03-06 02:57:00,
2013-03-05 22:02:00,27.7,23.7,30.45,SW,225,0.0,0.0,85,0.00,,,0.00,WUHU21623XXSP,2013-03-06 03:02:00,
2013-03-05 22:07:00,27.9,23.9,30.45,WSW,247,1.6,1.6,85,0.00,,,0.00,WUHU21623XXSP,2013-03-06 03:07:00,
2013-03-05 22:12:00,28.0,24.1,30.45,WSW,247,3.4,3.4,85,0.00,,,0.00,WUHU21623XXSP,2013-03-06 03:12:00,
2013-03-05 22:17:00,28.0,24.1,30.46,SSW,202,0.0,3.4,85,0.00,,,0.00,WUHU21623XXSP,2013-03-06 03:17:00,
2013-03-05 22:22:00,28.0,24.1,30.45,WSW,247,2.0,2.0,85,0.00,,,0.00,WUHU21623XXSP,2013-03-06 03:22:00,
2013-03-05 22:27:00,28.0,24.1,30.46,WSW,247,0.0,3.1,85,0.00,,,0.00,WUHU21623XXSP,2013-03-06 03:27:00,
2013-03-05 22:32:00,28.0,24.1,30.45,West,270,0.0,3.1,85,0.00,,,0.00,WUHU21623XXSP,2013-03-06 03:32:00,
2013-03-05 22:37:00,28.0,24.1,30.46,WSW,247,0.0,0.0,85,0.00,,,0.00,WUHU21623XXSP,2013-03-06 03:37:00,
2013-03-05 22:42:00,28.0,24.1,30.46,WSW,247,0.0,0.0,85,0.00,,,0.00,WUHU21623XXSP,2013-03-06 03:42:00,
2013-03-05 22:47:00,28.0,24.1,30.46,SW,225,0.0,0.0,85,0.00,,,0.00,WUHU21623XXSP,2013-03-06 03:47:00,
2013-03-05 22:52:00,28.0,24.1,30.45,WNW,292,0.0,0.0,85,0.00,,,0.00,WUHU21623XXSP,2013-03-06 03:52:00,
2013-03-05 22:57:00,28.0,24.1,30.45,WSW,247,1.6,1.6,85,0.00,,,0.00,WUHU21623XXSP,2013-03-06 03:57:00,
2013-03-05 23:02:00,28.0,24.1,30.45,WSW,247,0.0,1.6,85,0.00,,,0.00,WUHU21623XXSP,2013-03-06 04:02:00,
2013-03-05 23:07:00,28.0,24.1,30.46,WSW,247,0.0,0.7,85,0.00,,,0.00,WUHU21623XXSP,2013-03-06 04:07:00,
2013-03-05 23:12:00,28.0,24.1,30.45,WSW,247,0.0,0.0,85,0.00,,,0.00,WUHU21623XXSP,2013-03-06 04:12:00,
2013-03-05 23:17:00,28.0,24.4,30.45,WSW,247,3.6,3.6,86,0.00,,,0.00,WUHU21623XXSP,2013-03-06 04:17:00,
2013-03-05 23:22:00,28.0,24.4,30.45,WSW,247,0.0,3.6,86,0.00,,,0.00,WUHU21623XXSP,2013-03-06 04:22:00,
2013-03-05 23:27:00,28.0,24.4,30.45,WSW,247,1.8,2.0,86,0.00,,,0.00,WUHU21623XXSP,2013-03-06 04:27:00,
2013-03-05 23:32:00,28.2,24.5,30.46,WSW,247,0.0,1.8,86,0.00,,,0.00,WUHU21623XXSP,2013-03-06 04:32:00,
2013-03-05 23:37:00,28.2,24.5,30.46,WSW,247,0.0,0.0,86,0.00,,,0.00,WUHU21623XXSP,2013-03-06 04:37:00,
2013-03-05 23:42:00,28.2,24.5,30.45,WSW,247,1.1,1.1,86,0.00,,,0.00,WUHU21623XXSP,2013-03-06 04:42:00,
2013-03-05 23:47:00,28.2,24.5,30.46,WSW,247,0.0,1.6,86,0.00,,,0.00,WUHU21623XXSP,2013-03-06 04:47:00,
2013-03-05 23:53:00,28.6,24.9,30.46,WSW,247,3.8,3.8,86,0.00,,,0.00,WUHU21623XXSP,2013-03-06 04:53:00,
2013-03-05 23:58:00,28.6,24.9,30.45,WSW,247,1.8,3.8,86,0.00,,,0.00,WUHU21623XXSP,2013-03-06 04:58:00,